Find Starlink 32149

NORAD ID: 60292 Int'l Des: 2024-132 Owner: SPXS Country: US Constellation: starlink operational
LEOCIRCULAR

当前视图

正在加载3D地球...

About Starlink 32149

Starlink 32149 (NORAD 60292) is a starlink constellation satellite (v2 mini) launched Jul 28, 2024 by SPXS of US. It operates in LEO, CIRCULAR orbit with a mass of 730.00 kg.

关于 Starlink 32149

正在加载描述...

即将过境

Passes for default location (London). Set your location on the main map for personalized predictions.

高度历史

Loading altitude history...

两行轨道根数

1 60292U 24132Q 26168.63316427 .00000817 00000-0 38080-4 0 9995
2 60292 53.1612 308.1054 0001156 96.3890 263.7243 15.31697192106860
Epoch: Jun 17, 2026 • Age: 19 hours

当前状态

高度 478.2 km
速度 7.63 km/s
星下点 -24.16°S, 129.52°W
发射日期 Jul 28, 2024
运行时间 1.8 years
类型 internet

技术详情

分类 Payload
质量 730.00 kg
干质量 700.00 kg
总质量 730.00 kg
长度 0.30 m
直径 4.10 m
跨度 29.00 m
形状 Box + pan
制造商 SPXS
平台类型 Starlink V2M
阶段状态 In Orbit
所有者/国家 SPXS/US

Most Searched